Flag for Switzerland Weather past 2 weeks in Grenchen, Solothurn, Switzerland

Now
35 °F

Chilly.


Feels Like: 35 °F
Forecast: 26 / 35 °F
Wind: 2 mph from West

Location: Grenchen

Current Time: Jan 31, 2015 at 1:34:16 PM

Latest Report: Jan 31, 2015 at 1:00 PM


Visibility: N/A

Pressure: 29.15 "Hg

Humidity: 77%

Dew point: 28 °F

Location of GrenchenLocation

Historic Weather in Grenchen — Graph

°F

Grenchen temperature yesterday

Maximum temperature yesterday: 37 °F (at 12:00 AM)
Minimum temperature yesterday: 31 °F (at 10:00 AM)
Average temperature yesterday: 33 °F

Past Weeks' High & Low Weather Summary

 TemperatureHumidityPressure
High42 °F (Jan 16, 3:00 PM)100% (Jan 17, 6:00 AM)30.49 "Hg (Jan 17, 6:00 AM)
Low22 °F (Jan 28, 5:00 AM)63% (Jan 25, 1:00 PM)28.91 "Hg (Jan 30, 12:00 AM)
Average33 °F92%29.96 "Hg
* Reported Jan 16 12:00 Noon — Jan 31 12:00 Noon, Grenchen, Weather by CustomWeather, © 2014

Note: Actual official high and low records may vary slightly from our data, if they occured in-between our weather recording intervals... More about our weather records

Advertising

Grenchen weather history for previous 24 hours

 ConditionsComfort  
Time TempWeatherWind HumidityBarometerVisibility
12:00 PM
Jan 31
34 °FChilly.3 mph79%29.15 "HgN/A
11:00 AM30 °FChilly.1 mph95%29.18 "HgN/A
10:00 AM26 °FChilly.2 mph99%29.18 "HgN/A
9:00 AM26 °FChilly.1 mph99%29.18 "HgN/A
8:00 AM25 °FCold.No wind99%29.15 "HgN/A
7:00 AM29 °FChilly.1 mph95%29.15 "HgN/A
6:00 AM30 °FChilly.2 mph93%29.15 "HgN/A
5:00 AM32 °FChilly.3 mph95%29.12 "HgN/A
3:00 AM33 °FChilly.10 mph89%29.12 "HgN/A
2:00 AM33 °FChilly.7 mph88%29.09 "HgN/A
1:00 AM33 °FChilly.5 mph92%29.09 "HgN/A
12:00 AM33 °FChilly.9 mph89%29.09 "HgN/A
11:00 PM
Jan 30
33 °FChilly.9 mph96%29.06 "HgN/A
10:00 PM33 °FChilly.12 mph95%29.03 "HgN/A
9:00 PM33 °FChilly.9 mph96%29.03 "HgN/A
8:00 PM32 °FChilly.13 mph99%29.03 "HgN/A
7:00 PM32 °FChilly.15 mph92%29.00 "HgN/A
6:00 PM32 °FChilly.14 mph97%29.00 "HgN/A
5:00 PM32 °FChilly.18 mph96%29.00 "HgN/A
4:00 PM33 °FChilly.17 mph92%29.03 "HgN/A
3:00 PM36 °FChilly.18 mph79%29.00 "HgN/A
2:00 PM35 °FChilly.12 mph86%29.03 "HgN/A
1:00 PM32 °FChilly.9 mph98%29.09 "HgN/A
Weather by CustomWeather, © 2014

See weather overviewHow to use our weather pages